Weather History for Caldwell, NJ

Change the Weather History Date:

Monday, April 16, 2012

  Actual Average Record
Temperature  
Mean Temperature 72 °F -  
Max Temperature 90 °F 58 °F 91 °F (2002)
Min Temperature 54 °F 39 °F 30 °F (1950)
Cooling Degree Days 7    
Growing Degree Days 22 (Base 50)    
Moisture  
Dew Point 53 °F    
Average Humidity 55    
Maximum Humidity 93    
Minimum Humidity 24    
Precipitation  
Precipitation 0.00 in - - ()
Sea Level Pressure  
Sea Level Pressure 29.97 in    
Wind  
Wind Speed 3 mph (SSW)    
Max Wind Speed 16 mph    
Max Gust Speed 24 mph    
Visibility 9 miles    
Events      
Averages and records for this station are not official NWS values.
T = Trace of Precipitation, MM = Missing Value Source: NWS Daily Summary

Daily Weather History Graph

Daily Weather History Graph

Search for Another Location

Airport:

Trip Planner

Search our weather history database for the weather conditions in past years. The results will help you decide how hot, cold, wet, or windy it might be!

Date:

Astronomy

Apr. 16, 2012 Rise Set
Actual Time 6:15 AM EDT 7:38 PM EDT
Civil Twilight 5:47 AM EDT 8:06 PM EDT
Nautical Twilight 5:13 AM EDT 8:41 PM EDT
Astronomical Twilight 4:37 AM EDT 9:17 PM EDT
Moon 3:45 AM EDT (4/16) 3:29 PM EDT (4/16)
Length of Visible Light 14h 19m
Length of Day
13h 22m
Waning Crescent, 19% of the Moon is Illuminated
Apr 16
Waning Crescent
Apr 21
New
Apr 29
First Quarter
May 5
Full
May 12
Last Quarter

Hourly Weather History & Observations

Time (EDT) Temp. Heat Index Dew Point Humidity Pressure Visibility Wind Dir Wind Speed Gust Speed Precip Events Conditions
12:53 AM 60.1 °F - 54.0 °F 80% 30.03 in 9.0 mi Calm Calm - N/A   Clear
1:53 AM 57.9 °F - 54.0 °F 87% 30.01 in 9.0 mi Calm Calm - N/A   Clear
2:53 AM 57.0 °F - 53.1 °F 87% 30.00 in 8.0 mi Calm Calm - N/A   Clear
3:53 AM 55.0 °F - 53.1 °F 93% 30.00 in 7.0 mi Calm Calm - N/A   Clear
4:53 AM 54.0 °F - 52.0 °F 93% 30.01 in 6.0 mi Calm Calm - N/A   Clear
6:53 AM 54.0 °F - 52.0 °F 93% 30.02 in 5.0 mi Calm Calm - N/A   Clear
7:53 AM 60.1 °F - 54.0 °F 80% 30.04 in 7.0 mi Calm Calm - N/A   Clear
8:53 AM 66.9 °F - 55.0 °F 66% 30.04 in 8.0 mi Variable 4.6 mph - N/A   Clear
9:10 AM 69.8 °F - 55.4 °F 60% 30.02 in 9.0 mi WSW 5.8 mph - N/A   Partly Cloudy
9:53 AM 73.0 °F - 55.0 °F 53% 30.04 in 9.0 mi Variable 6.9 mph - N/A   Clear
10:53 AM 81.0 °F 80.7 °F 55.0 °F 41% 30.03 in 10.0 mi Variable 3.5 mph - N/A   Clear
11:53 AM 86.0 °F - 50.0 °F 29% 30.00 in 10.0 mi West 8.1 mph - N/A   Clear
12:53 PM 87.1 °F - 48.9 °F 27% 29.99 in 10.0 mi Variable 6.9 mph - N/A   Clear
1:53 PM 87.1 °F - 51.1 °F 29% 29.96 in 10.0 mi Calm Calm - N/A   Clear
2:53 PM 90.0 °F - 48.9 °F 24% 29.93 in 10.0 mi South 9.2 mph - N/A   Clear
3:53 PM 90.0 °F - 50.0 °F 25% 29.91 in 10.0 mi South 8.1 mph 17.3 mph N/A   Clear
4:53 PM 82.0 °F 81.4 °F 55.0 °F 39% 29.92 in 10.0 mi SSE 16.1 mph 24.2 mph N/A   Clear
5:53 PM 81.0 °F 80.4 °F 53.1 °F 38% 29.91 in 10.0 mi SSE 9.2 mph - N/A   Clear
6:53 PM 81.0 °F 80.5 °F 54.0 °F 39% 29.91 in 10.0 mi SSE 6.9 mph - N/A   Clear
7:53 PM 80.1 °F 79.9 °F 53.1 °F 39% 29.91 in 10.0 mi Calm Calm - N/A   Clear
8:53 PM 79.0 °F - 52.0 °F 39% 29.92 in 10.0 mi Calm Calm - N/A   Clear
9:53 PM 79.0 °F - 55.9 °F 45% 29.93 in 10.0 mi Calm Calm - N/A   Clear
10:53 PM 75.9 °F - 57.0 °F 52% 29.93 in 10.0 mi SW 3.5 mph - N/A   Clear
11:53 PM 72.0 °F - 57.0 °F 59% 29.94 in 10.0 mi Calm Calm - N/A   Clear